Location: *
(32.8667°N, 13.1833°E)
Time: 07:43:21
(UTC+00:00)

USA 229 - Pass Details

Date: 18 July 2019
Orbit: 1002 x 1210 km, 63.4° (Epoch: 18 August)

Event Time Altitude Azimuth Distance (km) Brightness Sun altitude
Rises 19:36:24 0° 188° (S) 3,708 6.2 -15.3°
Reaches altitude 10° 19:39:05 10° 181° (S) 2,766 5.5 -15.7°
Maximum altitude 19:45:07 42° 113° (ESE) 1,414 3.9 -16.7°
Drops below altitude 10° 19:51:20 10° 45° (NE) 2,856 5.9 -17.7°
Sets 19:54:08 0° 38° (NE) 3,841 6.7 -18.2°
